Powrót do katalogu

CZ-3B DEB

LostGTO
NORAD 40163·DEBRIS·🇨🇳 China

Wystrzelony Sep 4, 2010 z Xichang Satellite Launch Center

Loading…

TLE

NieaktualneSource: Space-Track

Epoka: Jun 12, 2026, 12:46 UTC

1 40163U 10042Q   26163.53213920 -.00000367  00000-0 -49780-2 0  9992
2 40163  27.5534 109.6324 7346177 202.3655 356.3004  1.92686763 82408

Śledź CZ-3B DEB w czasie rzeczywistym z AllMySat

Download on the App Store